Regional Weather Roundup
Issued by NWS Upton, NY

Current Version | Previous Version | Graphics & Text | Print | Product List | Glossary Off
Versions: 1 2 3 4 5 6 7 8 9 10 11 12 13 14 15 16 17 18 19 20 21 22 23 24 25 26 27 28 29 30 31 32 33 34 35 36 37 38 39 40 41 42 43 44 45 46 47 48 49 50

000
ASUS41 KOKX 282208
RWROKX

REGIONAL WEATHER ROUNDUP
NATIONAL WEATHER SERVICE NEW YORK NY
600 PM EDT SAT MAR 28 2015

NOTE: "FAIR" INDICATES FEW OR NO CLOUDS BELOW 12,000 FEET WITH NO
SIGNIFICANT WEATHER AND/OR OBSTRUCTIONS TO VISIBILITY.

NYZ071-072-176-178-NJZ106-104-282300-
NEW YORK CITY METRO AREA


CITY           SKY/WX    TMP DP  RH WIND       PRES   REMARKS
CENTRAL PARK   CLOUDY    37  23  56 N8        29.92R WCI  31
LAGUARDIA APRT PTSUNNY   36  24  62 N14       29.90R WCI  27
KENNEDY INTL   CLOUDY    37  23  56 N18       29.91R WCI  27
NEWARK/LIBERTY PTSUNNY   39  14  36 NW17      29.91R WCI  30
BRNX BOT. GARD   N/A    N/A N/A N/A NW6       29.93R
TETERBORO      CLOUDY    38  18  44 N13G20    29.90R WCI  30
$$

NYZ177-179-078>081-282300-
LONG ISLAND NEW YORK

CITY           SKY/WX    TMP DP  RH WIND       PRES   REMARKS
FARMINGDALE    CLOUDY    34  24  67 N14       29.90R WCI  25
ISLIP          LGT SNOW  32  27  81 NW14      29.88R WCI  22
SHIRLEY        LGT SNOW  31  27  85 NW15G21   29.89R FOG     WCI  20
WESTHAMPTON    LGT SNOW  31  27  85 NW14G23   29.88R FOG     WCI  21
MONTAUK POINT    N/A     34  32  92 NW8       29.85R WCI  27
$$

NYZ052-065-067-282300-
HUDSON VALLEY

CITY           SKY/WX    TMP DP  RH WIND       PRES   REMARKS
WHITE PLAINS   CLOUDY    32  22  66 N10G20    29.88R WCI  24
NEWBURGH       CLOUDY    34  23  64 NW9       29.92R WCI  26
MONTGOMERY     CLOUDY    31  17  56 NW15      29.92R WCI  20
POUGHKEEPSIE   LGT SNOW  33  20  58 N10       29.93R WCI  25
ALBANY         LGT SNOW  29  21  72 NW13      29.95R VSB 1   WCI  19
$$

NJZ001-105-106-008-010-013-015-019>022-104-282300-
NEW JERSEY

CITY           SKY/WX    TMP DP  RH WIND       PRES   REMARKS
NEWARK/LIBERTY PTSUNNY   39  14  36 NW17      29.91R WCI  30
TETERBORO      CLOUDY    38  18  44 N13G20    29.90R WCI  30
CALDWELL       CLOUDY    35  12  38 NW13G21   29.92R WCI  26
MORRISTOWN     PTSUNNY   36  14  41 N14G23    29.93R WCI  27
SOMERVILLE     PTSUNNY   36  13  38 NW18G25   29.93R WCI  26
SUSSEX         CLOUDY    32  13  45 NW9G18    29.94R WCI  24
ANDOVER          N/A     30  11  45 N10       29.93R WCI  21
TRENTON        CLOUDY    37  11  34 NW18G24   29.93R WCI  27
MILLVILLE      CLOUDY    37  15  40 NW17G23   29.97R WCI  27
ATLANTIC CITY  CLOUDY    37  17  44 W22G28    29.94R WCI  26
WRIGHTSTOWN    PTSUNNY   37  16  42 NW14G26   29.91R WCI  28
TOMS RIVER     CLOUDY    37  18  44 NW16G24   29.93R WCI  28
BELMAR         CLOUDY    39  16  38 NW12G20   29.90R WCI  32
$$

PAZ047>061-062-071-282300-
EASTERN PENNSYLVANIA

CITY           SKY/WX    TMP DP  RH WIND       PRES   REMARKS
PHILADELPHIA   CLOUDY    38  10  31 NW20      29.98R WCI  28
ALLENTOWN      PTSUNNY   32  12  43 N20G25    29.99R WCI  20
SCRANTON       CLOUDY    26   7  44 N18G26    29.99R WCI  13
$$

CTZ002-004>006-009-010-012-RIZ004-006-007-MAZ004-011-015-282300-
SOUTHERN NEW ENGLAND
 IN CT

CITY           SKY/WX    TMP DP  RH WIND       PRES   REMARKS
BRADLEY INTL   LGT SNOW  32  27  81 NW9       29.86R FOG     WCI  24
HARTFORD       LGT SNOW  32  27  81 NW8       29.88R WCI  25
DANBURY        CLOUDY    29  22  75 NW7       29.90R HAZE    WCI  22
WTRBRY/OXFORD  CLOUDY    28  18  64 NW6       29.87R WCI  22
BRIDGEPORT     LGT SNOW  32  25  75 NW15      29.89R WCI  22
MERIDEN        LGT SNOW  31  24  75 NW10      29.88R WCI  22
NEW HAVEN      LGT SNOW  31  27  85 NW9G20    29.87R FOG     WCI  23
CHESTER        LGT SNOW  32  32 100 NW10      29.84R VSB 1   WCI  24
GROTON         LGT SNOW  34  33  96 N8        29.84R FOG     WCI  27
WILLIMANTIC    LGT SNOW  33  30  88 NW8       29.85R FOG     WCI  26

 IN RI

CITY           SKY/WX    TMP DP  RH WIND       PRES   REMARKS
PROVIDENCE     LGT SNOW  34  31  88 NE14      29.84R VSB 1   WCI  25
BLOCK ISLAND   CLOUDY    34  30  86 NE7       29.83R WCI  28
WESTERLY       LGT SNOW  35  33  92 N6        29.84R FOG     WCI  30

 IN MA

CITY           SKY/WX    TMP DP  RH WIND       PRES   REMARKS
BOSTON         LGT SNOW  34  31  88 N7        29.84R FOG     WCI  28
WORCESTER      LGT SNOW  31  28  89 N6        29.80R VSB 1   WCI  25
WESTFIELD      CLOUDY    33  23  66 NW10      29.86R WCI  25
PROVINCETOWN   CLOUDY    34  30  86 N16G25    29.82R WCI  23
NANTUCKET      CLOUDY    35  31  85 N15G25    29.79R WCI  25
$$

ANZ330-335-338-340-345-350-353-355-282300-
COASTAL MARINE OBSERVATIONS


STATION/POSITION TIME  SKY/WX   TEMP    WIND        PRES    VSBY  WAVE
                                AIR SEA DIR/SP/G                  HT/PER
                 (UTC)          (F)     (DEG/KT/KT) (MB)    (MI)  (FT/S)
NY HARB ENTRANCE 2150            37 38  360/ 14/ 16 1011.6          3/11
4S FIRE IS       2103               36                N/A           4/11
20S FIRE ISLAND  2050               38              1011.2          5/11
23SW MTP         2150                                 N/A           5/11
HUDSON CANYON    NOT AVBL
EXECUTION ROCKS  NOT AVBL
WESTERN LI SOUND NOT AVBL
CENTRAL LI SOUND NOT AVBL
EASTERN LI SOUND NOT AVBL
ROBBINS REEF     2100            38     360/ 14/ 18 1010.2
$$


>>>>>>>>>>>>>>>>>>>>>>>>>>>> KEY <<<<<<<<<<<<<<<<<<<<<<<<<<<
>                                                          <
>     SKY/WX - SKY CONDITION/PRESENT WEATHER               <
>     TMP    - TEMPERATURE IN FAHRENHEIT                   <
>     DP     - DEWPOINT IN FAHRENHEIT                      <
>     RH     - RELATIVE HUMIDITY IN PERCENT                <
>     WIND   - DIRECTION AND SPEED IN MPH                  <
>     PRES   - MEAN SEA LEVEL PRESSURE IN INCHES OF HG     <
>     WCI    - WIND CHILL INDEX                            <
>     VSB    - VISIBILITY IN MILES                         <
>     HX     - HEAT INDEX                                  <
>     TC     - TEMPERATURE IN CELSIUS                      <
>     VRB    - VARIABLE WIND DIRECTION                     <
>                                                          <
>>>>>>>>>>>>>>>>>>>>>>>>>>>> KEY <<<<<<<<<<<<<<<<<<<<<<<<<<<




USA.gov is the U.S. government's official web portal to all federal, state and local government web resources and services.